Погода в Новомихайловском

Россия / Брянская область     52°58′25″N   33°51′34″E
темп.,
°C
ветер,
м/с
пор.,
м/с
влажн.,
%
обл.,
%
осадки,
мм/ч
давл.,
гПа
погр.,
м
9 мая, вс
вс900:00+4сз61392100 1.8 1010954
03:00+3зсз61289100 1.9 1013758
06:00+2зсз6139032 0.0 1015561
09:00+6сз7117414 0.0 10171051
12:00+9ссз7105298 0.1 10182138
15:00+10ссз71047100 0.1 10202295
18:00+11сз58555 0.0 10211828
21:00+5сз36711 0.0 102497
10 мая, пн
пн1000:00+3сз37770 0.0 1026122
03:00+2ссз35785 0.0 102779
06:00+2с24765 0.0 102977
09:00+9ссв34564 0.0 1029442
12:00+13ссв45424 0.0 10291445
15:00+15ссв45391 0.0 10281686
18:00+14ссв36514 0.0 1027965
21:00+8св35710 0.0 102875
11 мая, вт
вт1100:00+6св38740 0.0 1028128
03:00+4ссв310800 0.0 1027177
06:00+5св513784 0.0 1027320
09:00+11св610635 0.0 1026556
12:00+16св68575 0.0 1024843
15:00+19всв695663 0.0 10231562
18:00+15в51082100 0.6 1023738
21:00+12всв399510 0.8 1024245
12 мая, ср
ср1200:00+11в279711 0.1 1023171
03:00+10вюв2794100 0.1 1022214
06:00+8в3796100 2.1 1022316
09:00+10в488710 2.6 1021566
12:00+14вюв696869 0.6 10201427
15:00+15вюв71168100 1.7 10191625
18:00+13вюв611816 1.1 10191241
21:00+9в389386 1.4 1019178
13 мая, чт
чт1300:00+9в41193100 0.0 1017316
03:00+9в51396100 4.4 1016768
06:00+9юв5119498 0.1 1016603
09:00+12юв5985100 0.2 1016803
12:00+16ююв586298 0.1 10151585
15:00+17ююв586591 0.3 10151485
18:00+17юв487399 0.1 1014724
21:00+13в3992100 0.3 1014196